Location: Casilda
(33.0440°S, 61.1680°W)
Time: 20:16:26
(UTC-03:00)

ISS - Pass Details

Date: 30 November 2022
Orbit: 414 x 420 km, 51.6° (Epoch: 02 December)

Event Time Altitude Azimuth Distance (km) Brightness Sun altitude
Exits shadow 02:53:49 19° 171° (S) 1,082 -1.0 -28.2°
Drops below altitude 10° 02:55:11 10° 155° (SSE) 1,527 0.0 -28.1°
Sets 02:57:29 0° 143° (SE) 2,399 1.4 -27.8°
